CDT,Max TemperatureF,Mean TemperatureF,Min TemperatureF,Max Dew PointF,MeanDew PointF,Min DewpointF,Max Humidity, Mean Humidity, Min Humidity, Max Sea Level PressureIn, Mean Sea Level PressureIn, Min Sea Level PressureIn, Max VisibilityMiles, Mean VisibilityMiles, Min VisibilityMiles, Max Wind SpeedMPH, Mean Wind SpeedMPH, Max Gust SpeedMPH,PrecipitationIn, CloudCover, Events, WindDirDegrees
2014-3-1,10,2,-7,6,-5,-13,85,76,68,30.43,30.30,30.15,10,5,0,16,11,23,0.02,8,Snow,14
2014-3-2,3,-4,-12,-9,-14,-19,80,68,54,30.49,30.42,30.35,10,10,10,9,5,,0.02,3,,17
2014-3-3,33,12,-9,23,5,-17,93,72,64,30.36,30.06,29.91,10,9,4,29,13,38,0.00,0,,197
2014-3-4,28,19,10,21,14,7,93,82,69,30.11,29.94,29.85,10,10,10,15,6,,0.00,2,,57
2014-3-5,39,24,10,28,20,7,100,82,65,30.21,30.13,30.03,10,10,4,17,7,,0.00,2,,159
2014-3-6,60,45,30,39,32,25,87,66,39,30.02,29.78,29.64,10,10,10,22,15,26,0.00,0,,205
2014-3-7,44,32,19,36,25,18,100,82,69,30.24,30.00,29.70,10,8,1,24,17,30,0.00,4,Snow,353
2014-3-8,53,35,17,34,25,16,93,73,41,30.26,30.20,30.09,10,10,10,13,4,,0.00,1,,259
2014-3-9,71,55,39,32,29,21,70,46,15,30.07,29.89,29.81,10,10,10,23,14,28,0.00,0,,247
2014-3-10,69,54,39,36,33,30,71,50,27,29.85,29.76,29.55,10,10,10,10,6,,0.00,0,,242
2014-3-11,46,38,30,39,33,27,100,82,53,30.20,29.91,29.55,10,10,4,32,16,37,0.00,5,Rain,360
2014-3-12,54,42,30,30,26,20,93,61,27,30.19,30.12,30.04,10,10,10,22,12,32,0.03,1,,290
2014-3-13,66,48,30,28,25,17,82,48,15,30.05,29.85,29.66,10,10,10,23,10,31,0.00,0,,258
2014-3-14,60,46,31,29,24,16,83,47,21,29.96,29.87,29.77,10,10,10,17,11,24,0.00,0,,305
2014-3-15,41,34,26,31,25,22,94,75,51,30.35,29.98,29.72,10,10,5,18,10,23,0.00,4,,26
2014-3-16,52,37,22,28,25,21,96,73,35,30.37,30.16,29.82,10,10,5,16,8,23,0.00,4,Snow,212
2014-3-17,70,52,35,31,28,19,73,43,16,29.80,29.46,29.23,10,10,10,24,12,32,0.00,1,,211
2014-3-18,44,46,30,33,31,29,99,89,30,29.97,29.64,29.30,10,7,0,34,19,44,0.01,7,Snow,346
2014-3-19,51,36,22,31,24,18,99,68,26,30.05,30.00,29.97,10,9,4,21,7,28,0.00,2,,276
2014-3-20,63,44,24,30,21,12,86,50,14,29.97,29.83,29.70,10,10,10,23,6,33,0.00,0,,222
2014-3-21,43,35,27,31,27,21,81,70,54,30.29,30.04,29.80,10,10,10,28,17,40,0.00,4,,325
2014-3-22,26,22,16,21,15,11,86,75,57,30.47,30.39,30.29,10,8,2,21,12,25,0.00,7,Snow,348
2014-3-23,35,22,9,24,16,7,93,77,53,30.47,30.28,30.10,10,10,10,18,7,24,0.00,4,,197
2014-3-24,37,30,23,25,20,13,95,69,38,30.30,30.23,30.17,10,10,10,24,9,30,0.00,5,Snow,327
2014-3-25,43,29,15,20,13,10,78,55,33,30.34,30.19,29.88,10,10,10,20,11,26,0.00,0,,270
2014-3-26,67,48,29,40,25,18,74,51,24,29.87,29.56,29.29,10,10,10,25,19,33,0.00,1,Thunderstorm,188
2014-3-27,43,36,26,34,28,20,92,81,60,29.87,29.59,29.36,10,9,2,29,14,36,0.05,7,Rain-Snow,330
2014-3-28,30,26,22,25,22,19,89,79,72,30.21,30.03,29.87,10,10,1,13,5,,0.00,6,Snow,73
2014-3-29,71,45,19,32,24,18,96,53,14,30.21,29.99,29.81,10,10,10,28,12,36,0.00,0,,202
2014-3-30,70,54,37,37,31,27,68,44,24,29.81,29.69,29.43,10,10,10,20,12,25,0.00,0,,146
2014-3-31,55,38,20,39,25,13,99,79,51,30.03,29.62,29.29,10,7,0,38,18,52,0.00,6,Fog-Snow-Thunderstorm,319